This is the latest recevied weather packets stored in our database for station/object N5LSN. If no packets are shown the sender has not sent any weather packets the latest 10 day(s).
| Time | Temp. | Humidity | Pressure | Rain* | Wind** | Luminosity | Snow |
|---|---|---|---|---|---|---|---|
| 1777699933 | 11.11° C | 95% | 1018.4 hPa | 0 mm | - | 0 W/m² | - |
| 1777699631 | 11.11° C | 95% | 1018.1 hPa | 0 mm | - | 0 W/m² | - |
| 1777699329 | 11.11° C | 95% | 1018.5 hPa | 0 mm | - | 0 W/m² | - |
| 1777699027 | 11.11° C | 96% | 1018.3 hPa | 0 mm | - | 0 W/m² | - |
| 1777698725 | 11.11° C | 95% | 1018.4 hPa | 0 mm | - | 0 W/m² | - |
| 1777698421 | 11.11° C | 95% | 1018.4 hPa | 0 mm | - | 0 W/m² | - |
| 1777698117 | 11.11° C | 95% | 1018.2 hPa | 0 mm | - | 0 W/m² | - |
| 1777697814 | 11.11° C | 95% | 1018.2 hPa | 0 mm | - | 0 W/m² | - |
| 1777697511 | 11.11° C | 95% | 1018.3 hPa | 0 mm | - | 0 W/m² | - |
| 1777697208 | 11.11° C | 94% | 1018.4 hPa | 0 mm | - | 0 W/m² | - |
| 1777696904 | 11.11° C | 93% | 1018.3 hPa | 0 mm | - | 0 W/m² | - |
| 1777696602 | 11.67° C | 93% | 1018.2 hPa | 0 mm | - | 0 W/m² | - |
| 1777696299 | 11.67° C | 93% | 1018.5 hPa | 0 mm | - | 0 W/m² | - |
| 1777695998 | 11.67° C | 92% | 1018.4 hPa | 0 mm | - | 0 W/m² | - |
| 1777695696 | 11.67° C | 91% | 1018.2 hPa | 0 mm | - | 0 W/m² | - |
| 1777695393 | 11.67° C | 91% | 1018.1 hPa | 0 mm | - | 0 W/m² | - |
| 1777695090 | 11.67° C | 90% | 1018.2 hPa | 0 mm | - | 0 W/m² | - |
| 1777694787 | 11.67° C | 92% | 1018.3 hPa | 0 mm | - | 0 W/m² | - |
| 1777694485 | 11.67° C | 90% | 1018.5 hPa | 0 mm | - | 0 W/m² | - |
| 1777694180 | 12.22° C | 88% | 1018.3 hPa | 0 mm | - | 0 W/m² | - |
| 1777693877 | 12.22° C | 88% | 1018.4 hPa | 0 mm | - | 0 W/m² | - |
| 1777693575 | 12.22° C | 88% | 1018.5 hPa | 0 mm | - | 0 W/m² | - |
| 1777693274 | 12.22° C | 83% | 1018.4 hPa | 0 mm | - | 0 W/m² | - |
| 1777692971 | 12.78° C | 82% | 1018.4 hPa | 0 mm | - | 0 W/m² | - |
| 1777692669 | 12.78° C | 82% | 1018.2 hPa | 0 mm | - | 0 W/m² | - |
* Rain latest hour (hover to see other rain measurements)
** Current wind speed in m/s (hover to see current wind gust speed)